Location: Austin
(30.3000°N, 97.7500°W)
Time: 11:07:56
(UTC-05:00)

Cosmos 2322 - Pass Details

Date: 03 April 2024
Orbit: 838 x 855 km, 71.0° (Epoch: 21 April)

Event Time Altitude Azimuth Distance (km) Brightness Sun altitude
Exits shadow 05:47:35 33° 226° (SW) 1,380 4.3 -19.6°
Maximum altitude 05:50:00 59° 291° (WNW) 971 3.7 -19.2°
Drops below altitude 10° 05:55:37 10° 11° (N) 2,479 6.5 -18.0°
Sets 05:58:07 0° 15° (NNE) 3,420 7.3 -17.5°
